Location: Kunchanapalle
(16.4623°N, 80.6176°E)
Time: 05:17:59
(UTC+00:00)

SL-08 R/B - Visible Passes

Search period start: 26 November 2020 00:00
Search period end: 06 December 2020 00:00
Orbit: 950 x 1019 km, 82.9° (Epoch: 25 November)

Date Brightness Start Highest point End Pass type
(mag) Time Alt. Az. Time Alt. Az. Time Alt. Az.
26 Nov 5.8 12:27:49 10° NE 12:31:29 16° E 12:35:08 10° ESE visible
26 Nov 5.6 14:11:18 10° NNW 14:16:57 40° W 14:22:37 10° SSW visible
27 Nov 4.9 12:54:01 10° NNE 12:59:37 38° E 13:05:13 10° SSE visible
27 Nov 6.9 14:40:56 10° NW 14:44:46 17° W 14:48:36 10° SW visible
28 Nov 7.4 00:27:48 10° ESE 00:31:04 14° E 00:34:17 10° ENE visible
28 Nov 4.3 13:21:32 10° N 13:27:38 87° E 13:33:46 10° S visible
29 Nov 5.6 13:49:53 10° NNW 13:55:33 41° W 14:01:14 10° SSW visible
30 Nov 4.9 12:32:38 10° NNE 12:38:13 37° E 12:43:49 10° SSE visible
30 Nov 6.9 14:19:27 10° NW 14:23:22 18° W 14:27:18 10° SW visible
01 Dec 7.4 00:06:34 10° ESE 00:09:42 14° E 00:12:48 10° ENE visible
01 Dec 4.4 13:00:07 10° N 13:06:14 85° E 13:12:23 10° S visible
02 Dec 5.7 13:28:28 10° NNW 13:34:09 42° W 13:39:53 10° SSW visible
03 Dec 7.0 13:57:59 10° NW 14:01:58 18° W 14:05:59 10° SW visible
03 Dec 7.4 23:45:21 10° ESE 23:48:19 14° E 23:51:17 10° ENE visible
04 Dec 4.4 12:38:43 10° N 12:44:50 84° E 12:50:59 10° S visible
05 Dec 6.5 00:10:33 10° SSE 00:16:07 32° E 00:21:35 10° NNE visible
05 Dec 5.7 13:07:02 10° NNW 13:12:45 43° W 13:18:31 10° SSW visible
